Farrell Flat Airport

Jump to: basic info | weather | frequencies | runways | comments

Related pages: nearby airports | nearby navaids | notams | map

Basic information (top)

Codes: YFFT
Location: lon -33.833302, lat 138.766998
Status: small_airport

Weather (top)

Current conditions for Adelaide International Airport 68nm (125km) S (rec'd 2014/10/26 06:30Z):

YPAD 260630Z 05011KT CAVOK 29/13 Q1005 RMK 7AC110 FM0800 23018KT 9999 -SHRA SCT015 SCT025

Airport forecast for Adelaide International Airport 68nm (125km) S (rec'd 2014/10/26 06:33Z):

TAF YPAD 260514Z 2606/2712 03010KT 9999 -SHRA BKN120 
     FM260800 23018KT 9999 -SHRA SCT015 SCT025 
     FM261900 23018KT 9999 -SHRA SCT020 SCT030 
     FM262200 24018KT 9999 SCT030 
     FM270700 24010KT 9999 FEW035 PROB30 INTER 2606/2610 VRB30G40KT 5000 TSRA BKN120 SCT100CB

Frequencies (top)

Verify before use: may be inaccurate or out of date.

CTAF: 122.4 MHz (CTAF)
MISC: 114.2 MHz (MISC)
MISC: 119.8 MHz (MISC)
MISC: 121.3 MHz (MISC)

Runways (top)

03/21: 1,443 ft (440 m) — grass — not lighted

14/32: 2,486 ft (758 m) — grass — not lighted

Latest comments (top)

No comments yet for Farrell Flat Airport

More... (top)

See also NOTAMs and nearby airports and navaids, or visit the Farrell Flat Airport page at the main OurAirports website..